TimeWET,TemperatureF,Dew PointF,Humidity,Sea Level PressureIn,VisibilityMPH,Wind Direction,Wind SpeedMPH,Gust SpeedMPH,PrecipitationIn,Events,Conditions,WindDirDegrees,DateUTC
12:00 AM,74,57,45,29.95,6,NW,6.9,,,,Partly Cloudy,310,2012-10-24 00:00:00
12:00 AM,75.2,57.2,53,30.01,6.2,NW,6.9,-,N/A,,Scattered Clouds,310,2012-10-24 00:00:00
12:30 AM,73.4,57.2,57,30.01,6.2,WNW,4.6,-,N/A,,Scattered Clouds,300,2012-10-24 00:30:00
1:00 AM,73.4,57.2,57,30.01,6.2,NW,3.5,-,N/A,,Scattered Clouds,310,2012-10-24 01:00:00
1:30 AM,71.6,57.2,60,30.01,6.2,Variable,1.2,-,N/A,,Scattered Clouds,0,2012-10-24 01:30:00
2:00 AM,71.6,57.2,60,30.01,6.2,Calm,Calm,-,N/A,,Scattered Clouds,0,2012-10-24 02:00:00
2:30 AM,71.6,57.2,60,30.01,6.2,SSE,5.8,-,N/A,,Unknown,150,2012-10-24 02:30:00
3:00 AM,70,58,56,29.94,6,SSE,4.6,,,,,160,2012-10-24 03:00:00
3:00 AM,69.8,57.2,64,30.01,6.2,SSE,4.6,-,N/A,,Unknown,150,2012-10-24 03:00:00
3:30 AM,69.8,59.0,68,29.98,6.2,Calm,Calm,-,N/A,,Unknown,0,2012-10-24 03:30:00
4:00 AM,69.8,59.0,68,29.98,1.9,SE,3.5,-,N/A,,Unknown,140,2012-10-24 04:00:00
4:30 AM,68.0,59.0,73,29.98,6.2,Variable,1.2,-,N/A,,Unknown,0,2012-10-24 04:30:00
5:00 AM,68.0,59.0,73,29.98,6.2,East,1.2,-,N/A,,Scattered Clouds,100,2012-10-24 05:00:00
5:30 AM,68.0,59.0,73,29.98,6.2,Variable,2.3,-,N/A,,Scattered Clouds,0,2012-10-24 05:30:00
6:00 AM,68,58,61,29.94,6,SE,1.2,,,,Partly Cloudy,140,2012-10-24 06:00:00
6:00 AM,68.0,57.2,68,29.98,6.2,Variable,2.3,-,N/A,,Scattered Clouds,0,2012-10-24 06:00:00
6:30 AM,66.2,59.0,78,29.98,6.2,Calm,Calm,-,N/A,,Scattered Clouds,0,2012-10-24 06:30:00
7:00 AM,64.4,59.0,83,30.01,6.2,ENE,3.5,-,N/A,,Mostly Cloudy,70,2012-10-24 07:00:00
7:30 AM,66.2,60.8,83,30.01,6.2,East,3.5,-,N/A,,Mostly Cloudy,100,2012-10-24 07:30:00
8:00 AM,68.0,59.0,73,30.01,6.2,NE,3.5,-,N/A,,Mostly Cloudy,50,2012-10-24 08:00:00
8:30 AM,71.6,59.0,64,30.04,3.7,Variable,2.3,-,N/A,,Mostly Cloudy,0,2012-10-24 08:30:00
9:00 AM,73,59,51,29.97,6,NNE,3.5,,,,Scattered Clouds,30,2012-10-24 09:00:00
9:00 AM,73.4,59.0,61,30.04,6.2,NNE,3.5,-,N/A,,Mostly Cloudy,30,2012-10-24 09:00:00
9:30 AM,73.4,57.2,57,30.04,6.2,NNW,5.8,-,N/A,,Mostly Cloudy,340,2012-10-24 09:30:00
10:00 AM,75.2,57.2,53,30.04,6.2,NW,5.8,-,N/A,,Mostly Cloudy,320,2012-10-24 10:00:00
10:30 AM,75.2,57.2,53,30.04,6.2,NNW,4.6,-,N/A,,Scattered Clouds,330,2012-10-24 10:30:00
11:00 AM,77.0,57.2,50,30.04,6.2,NNW,6.9,-,N/A,,Scattered Clouds,330,2012-10-24 11:00:00
11:30 AM,78.8,57.2,47,30.04,6.2,NW,6.9,-,N/A,,Scattered Clouds,320,2012-10-24 11:30:00
12:00 PM,79,58,38,29.94,6,NW,5.8,,,,Partly Cloudy,310,2012-10-24 12:00:00
12:00 PM,78.8,57.2,47,30.01,6.2,NW,6.9,-,N/A,,Scattered Clouds,320,2012-10-24 12:00:00
12:30 PM,78.8,59.0,51,30.01,6.2,NW,6.9,-,N/A,,Scattered Clouds,310,2012-10-24 12:30:00
1:00 PM,80.6,59.0,48,29.98,6.2,NW,4.6,-,N/A,,Partly Cloudy,310,2012-10-24 13:00:00
1:30 PM,80.6,59.0,48,29.98,6.2,Variable,4.6,-,N/A,,Partly Cloudy,0,2012-10-24 13:30:00
2:00 PM,80.6,57.2,45,29.95,6.2,WSW,3.5,-,N/A,,Partly Cloudy,250,2012-10-24 14:00:00
2:30 PM,82.4,59.0,45,29.95,6.2,NNW,4.6,-,N/A,,Partly Cloudy,340,2012-10-24 14:30:00
3:00 PM,83,58,33,29.86,6,WNW,8.1,,,,Partly Cloudy,290,2012-10-24 15:00:00
3:00 PM,82.4,57.2,42,29.95,6.2,West,6.9,-,N/A,,Partly Cloudy,280,2012-10-24 15:00:00
3:30 PM,82.4,57.2,42,29.95,6.2,WNW,10.4,-,N/A,,Partly Cloudy,290,2012-10-24 15:30:00
4:00 PM,82.4,57.2,42,29.95,6.2,WNW,11.5,-,N/A,,Partly Cloudy,290,2012-10-24 16:00:00
4:30 PM,82.4,57.2,42,29.95,6.2,WNW,11.5,-,N/A,,Partly Cloudy,290,2012-10-24 16:30:00
5:00 PM,82.4,57.2,42,29.95,6.2,West,8.1,-,N/A,,Partly Cloudy,280,2012-10-24 17:00:00
5:30 PM,80.6,57.2,45,29.95,6.2,WNW,6.9,-,N/A,,Partly Cloudy,290,2012-10-24 17:30:00
6:00 PM,79,54,31,29.88,6,WNW,9.2,,,,Partly Cloudy,290,2012-10-24 18:00:00
6:00 PM,78.8,53.6,42,29.95,6.2,WNW,8.1,-,N/A,,Partly Cloudy,290,2012-10-24 18:00:00
6:30 PM,78.8,53.6,42,29.95,6.2,WNW,10.4,-,N/A,,Partly Cloudy,300,2012-10-24 18:30:00
7:00 PM,75.2,53.6,47,29.98,6.2,WNW,10.4,-,N/A,,Partly Cloudy,290,2012-10-24 19:00:00
7:30 PM,73.4,55.4,53,29.98,6.2,WNW,11.5,-,N/A,,Partly Cloudy,290,2012-10-24 19:30:00
8:00 PM,73.4,57.2,57,29.98,6.2,West,10.4,-,N/A,,Partly Cloudy,280,2012-10-24 20:00:00
8:30 PM,71.6,57.2,60,29.98,6.2,West,9.2,-,N/A,,Partly Cloudy,280,2012-10-24 20:30:00
9:00 PM,70,58,57,29.94,6,West,6.9,,,,Partly Cloudy,280,2012-10-24 21:00:00
9:00 PM,69.8,57.2,64,29.98,6.2,West,6.9,-,N/A,,Scattered Clouds,280,2012-10-24 21:00:00
9:30 PM,68.0,59.0,73,29.98,6.2,West,4.6,-,N/A,,Scattered Clouds,280,2012-10-24 21:30:00
10:00 PM,68.0,59.0,73,29.98,6.2,West,5.8,-,N/A,,Scattered Clouds,270,2012-10-24 22:00:00
10:30 PM,68.0,60.8,78,29.98,6.2,West,5.8,-,N/A,,Partly Cloudy,270,2012-10-24 22:30:00
11:00 PM,66.2,60.8,83,29.98,6.2,West,4.6,-,N/A,,Partly Cloudy,270,2012-10-24 23:00:00
11:30 PM,66.2,60.8,83,29.98,6.2,West,3.5,-,N/A,,Partly Cloudy,270,2012-10-24 23:30:00